Simultaneous Nadir Overpasses (SNOs) Predictions

Prediction of SNOs between NOAA-19 and TERRA Satellite Orbit:

Table of predicted SNOs for the next 14.0 days since TLE Epoch: 1/7/2023
Index Date (NOAA-19) Time (NOAA-19) Lat,Lon (NOAA-19) SZA (NOAA-19 ) Date (TERRA) Time (TERRA) Lat,Lon (TERRA) SZA (TERRA ) Distance(km) Time Diff (sec)
1 01/08/2023 10:54:02 -80.92,-128.00 75.42 01/08/2023 10:55:02 -80.93,-128.14 75.41 2.86 60
2 01/08/2023 11:44:57 80.92, 39.27 104.58 01/08/2023 11:44:26 80.90, 39.16 104.54 2.71 31
3 01/10/2023 14:44:44 80.92, -6.45 104.20 01/10/2023 14:45:57 80.90, -6.24 104.22 4.27 73
4 01/10/2023 15:35:46 -80.92, 161.64 75.75 01/10/2023 15:35:19 -80.92, 161.61 75.76 0.51 27
5 01/12/2023 19:26:26 80.92, -76.01 103.90 01/12/2023 19:26:12 80.93, -75.92 103.92 2.32 14
6 01/14/2023 23:17:15 -80.92, 46.02 76.51 01/14/2023 23:17:06 -80.91, 45.99 76.53 1.73 9
7 01/17/2023 03:07:55 80.92, 168.52 103.09 01/17/2023 03:07:58 80.93, 168.55 103.10 1.22 3



Historial Predications of SNOs between NOAA-19 and TERRA
